Theta_e
337 335 333 337 338 338 337 333 331 329 329 327 325 325 323 326 327 329 324 322 328 328 328 327 328 325 328 328 326 321 324 323 324
333 336 335 333 337 338 336 333 332 330 327 322 320 323 322 326 327 329 325 326 328 326 326 327 327 326 327 326 323 325 327 325 324
322 333 335 335 334 335 335 336 332 331 328 325 320 319 323 327 326 328 325 325 326 324 326 325 326 326 326 326 325 325 325 325 324
310 323 332 334 335 334 335 335 335 332 330 328 325 320 323 327 326 327 328 327 327 325 325 324 325 324 325 325 322 324 322 324 321
302 311 325 330 333 334 335 335 336 335 332 330 327 324 325 327 327 328 326 326 327 326 325 325 324 323 324 323 323 323 322 322 320
300 304 312 325 330 333 336 334 335 335 334 332 330 327 328 326 326 328 324 325 325 325 324 323 323 323 322 322 323 322 321 318 319
300 302 307 312 323 329 333 336 335 335 334 334 333 331 329 327 326 326 321 326 324 324 323 322 322 320 322 321 321 320 320 315 315
299 300 302 309 313 322 328 331 334 336 336 335 333 332 331 329 326 323 319 324 324 323 322 322 321 321 321 320 320 318 317 318 314
299 299 301 303 309 317 322 326 328 332 334 333 335 332 331 329 327 326 318 323 324 323 322 322 321 321 320 319 319 316 316 316 313
298 298 299 301 305 309 317 321 323 325 329 333 333 333 333 330 328 327 321 320 322 322 322 322 321 320 320 319 318 315 314 313 309
298 298 298 299 300 305 309 313 318 321 323 324 331 333 333 331 329 327 325 320 320 321 322 320 321 320 320 319 319 314 313 313 311
298 298 298 298 299 299 303 309 315 319 320 321 325 329 331 331 328 326 325 324 320 320 321 320 320 320 319 318 319 318 312 309 311
298 298 298 298 298 298 299 300 307 312 316 319 319 322 329 329 327 326 326 325 324 322 320 320 319 320 320 319 319 318 319 317 311
298 298 298 298 298 298 298 299 300 303 309 313 317 319 323 327 327 324 323 325 323 323 322 319 319 318 318 319 319 320 320 319 318
297 297 297 297 297 298 298 299 300 301 303 315 318 320 322 324 324 323 323 323 322 321 321 320 321 320 318 318 317 318 319 322 322
296 297 297 297 298 297 298 298 301 306 311 317 319 317 318 321 321 321 322 323 322 320 318 320 319 319 319 319 317 317 315 317 319
296 296 297 297 297 297 297 298 302 309 314 316 316 319 318 316 318 319 321 322 323 321 322 320 321 319 319 318 318 318 318 316 314
295 296 296 296 296 297 297 297 298 307 311 312 314 316 315 316 316 316 317 319 320 321 321 320 320 321 321 320 319 319 319 318 317
296 296 296 296 296 296 296 296 296 297 307 310 310 311 311 314 315 316 316 315 316 317 318 318 319 319 318 317 317 317 318 319 319
296 296 295 295 296 296 295 295 296 296 296 304 310 309 310 311 312 312 313 313 313 314 317 318 317 317 317 317 317 317 316 317 319
Wind_Speed
6 4 3 4 5 4 4 4 5 8 9 11 13 14 15 15 10 10 5 8 12 12 13 13 13 13 15 15 13 11 16 15 15
8 7 6 4 5 4 3 1 2 5 7 9 11 13 13 11 11 9 10 11 11 9 11 11 13 12 13 14 15 15 14 14 14
7 8 8 7 6 6 4 2 1 2 5 8 11 12 14 11 11 5 9 11 10 8 11 9 11 11 12 11 12 12 13 13 14
8 7 10 10 9 8 7 5 3 2 3 6 8 11 12 9 10 8 7 12 10 12 8 8 11 8 10 11 10 10 12 13 12
6 6 7 12 10 10 9 8 6 5 3 3 6 9 13 7 8 4 7 7 5 6 7 9 8 7 8 8 9 8 11 9 12
6 5 5 6 11 9 9 12 8 7 6 4 4 6 6 5 6 3 4 5 4 4 6 6 5 8 6 8 6 9 8 8 9
8 4 4 5 6 8 6 6 11 11 10 8 2 5 3 3 4 5 3 4 5 3 4 6 5 5 5 4 4 6 9 7 8
9 6 5 4 5 5 4 4 8 8 12 10 4 2 2 1 2 4 4 3 3 2 4 3 5 4 4 4 5 6 5 8 7
12 11 7 5 3 2 3 4 8 12 12 13 9 9 4 1 1 7 3 3 2 4 3 3 3 4 4 5 5 6 7 8 7
12 12 12 8 5 3 3 2 3 5 5 12 15 15 11 6 4 4 3 1 2 6 4 5 4 5 5 6 6 5 7 5 5
11 11 11 11 9 5 4 4 4 6 6 5 10 16 14 11 7 4 4 2 1 3 4 4 4 7 6 8 9 10 5 5 6
10 11 10 10 10 9 6 4 4 3 9 9 3 8 15 13 13 10 4 2 2 1 3 6 3 4 7 8 10 12 12 9 6
8 9 10 11 10 10 8 7 4 4 4 6 10 6 7 11 14 13 12 4 0 2 3 3 5 4 6 7 9 11 13 15 13
8 8 9 11 11 10 10 9 7 3 4 4 7 8 4 7 10 13 13 10 9 2 1 4 5 5 5 6 8 11 12 12 13
8 9 9 10 10 11 11 10 10 9 4 5 9 7 5 3 3 6 9 11 9 9 5 3 5 6 8 9 6 7 9 12 12
9 10 9 9 10 11 11 11 11 13 7 10 14 17 10 5 1 2 6 7 12 8 6 2 3 5 8 9 11 13 9 11 12
10 10 11 11 10 10 11 12 11 13 11 7 7 6 8 18 8 2 4 4 2 7 3 8 7 8 7 10 12 13 17 13 13
9 10 11 12 11 11 11 11 11 9 9 11 5 4 3 6 7 10 9 6 3 6 5 7 5 7 12 13 14 15 16 14 13
8 10 11 11 12 11 11 11 11 10 6 7 8 7 6 4 2 4 5 10 8 9 8 5 2 3 4 5 4 7 11 12 13
7 8 9 10 10 10 11 10 10 10 9 5 3 2 2 2 3 5 7 7 9 6 3 0 3 5 8 8 9 12 10 9 14
Wind_Direction
254 242 222 183 156 113 122 53 26 24 17 15 17 22 33 50 47 47 52 68 67 63 68 71 69 74 78 80 81 83 75 77 75
283 250 231 224 207 177 158 130 45 24 19 12 16 22 30 56 52 35 40 67 70 59 64 69 77 76 79 77 78 80 78 74 72
284 268 261 248 243 236 218 210 187 11 13 14 16 25 36 35 47 42 35 70 67 56 66 68 63 75 76 83 83 81 78 73 72
277 274 252 249 255 256 256 246 244 267 349 4 16 25 46 46 51 38 30 57 45 56 65 55 75 69 67 76 73 74 76 72 71
307 280 268 251 250 253 254 259 249 244 265 333 9 24 47 28 45 30 58 49 51 47 24 51 79 66 71 63 74 69 74 76 70
344 301 282 266 253 259 255 250 259 257 263 291 352 29 42 30 49 312 51 42 39 43 16 85 68 68 58 61 65 63 65 80 71
8 349 286 276 270 258 272 256 235 248 253 264 305 28 346 24 56 297 39 54 33 83 59 44 52 64 58 53 43 48 47 64 65
33 8 336 278 270 266 286 307 255 232 241 242 247 183 273 21 36 299 14 82 27 344 4 71 68 67 34 22 28 50 45 39 49
41 37 18 348 281 287 284 287 16 255 240 244 247 219 206 166 199 288 354 71 22 15 34 66 46 10 23 19 19 29 28 42 37
41 38 37 25 6 296 290 332 8 358 305 255 245 236 237 180 196 255 304 159 331 9 24 14 20 8 358 0 1 15 21 22 28
45 41 37 34 31 10 324 298 340 17 10 8 259 255 230 215 193 183 283 245 272 36 9 18 14 2 6 359 358 355 5 3 4
40 41 41 38 33 29 5 325 320 348 30 36 354 269 246 234 195 190 198 289 293 21 11 23 353 6 2 354 4 3 355 349 349
41 36 36 38 36 29 22 14 303 302 319 4 14 7 253 249 212 199 161 178 183 20 29 32 29 1 6 350 352 355 356 355 347
49 45 40 38 36 31 29 19 16 352 296 331 329 351 348 259 249 218 202 189 163 150 326 31 31 17 352 339 341 340 342 346 348
54 52 50 48 42 36 32 30 28 19 22 81 32 28 31 328 284 237 210 209 203 175 168 54 13 3 346 345 321 299 318 333 325
60 60 60 58 51 44 40 35 35 33 62 106 79 52 58 63 49 182 207 218 228 230 250 282 314 340 342 335 331 329 298 281 295
57 57 57 59 59 53 48 45 45 52 61 116 107 102 54 50 65 115 182 105 198 232 261 298 303 291 289 301 312 318 332 343 284
56 57 56 56 55 55 53 56 59 62 59 65 87 110 74 80 38 66 79 98 97 132 195 235 264 294 287 305 302 300 306 312 329
60 56 56 55 55 54 54 52 56 60 68 63 65 78 82 56 52 4 18 29 27 29 29 45 130 118 53 45 19 324 285 281 293
60 57 57 56 55 53 51 50 51 54 58 71 115 115 68 61 354 300 296 332 346 351 342 200 299 294 288 272 302 335 351 313 284